Change the Weather History Date:

Sunday, October 31, 2010

  Actual Average Record
Temperature  
Mean Temperature 52 °F -  
Max Temperature 61 °F 60 °F 77 °F (1963)
Min Temperature 42 °F 40 °F 27 °F (1971)
Degree Days  
Heating Degree Days 14    
Growing Degree Days 2 (Base 50)    
Moisture  
Dew Point 29 °F    
Average Humidity 44    
Maximum Humidity 58    
Minimum Humidity 28    
Precipitation  
Precipitation 0.00 in - - ()
Sea Level Pressure  
Sea Level Pressure 30.10 in    
Wind  
Wind Speed 1 mph (East)    
Max Wind Speed 5 mph    
Max Gust Speed -    
Visibility 10 miles    
Events      
Averages and records for this station are not official NWS values.
T = Trace of Precipitation, MM = Missing Value Source: NWS Daily Summary

Daily Weather History Graph

Daily Weather History Graph

Search for Another Location

Airport or City:

Trip Planner

Search our weather history database for the weather conditions in past years. The results will help you decide how hot, cold, wet, or windy it might be!

Date:

Astronomy

Oct. 31, 2010 Rise Set
Actual Time 6:48 AM MST 5:29 PM MST
Civil Twilight 6:21 AM MST 5:56 PM MST
Nautical Twilight 5:51 AM MST 6:26 PM MST
Astronomical Twilight 5:21 AM MST 6:57 PM MST
Moon 12:28 AM MST (10/31) 1:59 PM MST (10/31)
Length of Visible Light 11h 34m
Length of Day
10h 40m
Waning Crescent, 36% of the Moon is Illuminated
Oct 31
Waning Crescent
Nov 5
New
Nov 13
First Quarter
Nov 21
Full
Nov 28
Last Quarter

Hourly Weather History & Observations

Time (MST) Temp. Windchill Dew Point Humidity Pressure Visibility Wind Dir Wind Speed Gust Speed Precip Events Conditions
12:53 AM 48.9 °F - 26.1 °F 41% 30.00 in 10.0 mi Calm Calm - N/A   Clear
1:53 AM 48.2 °F - 28.4 °F 46% 30.12 in 10.0 mi Calm Calm - N/A   Clear
2:53 AM 44.1 °F 41.5 °F 27.0 °F 51% 30.01 in 10.0 mi SE 4.6 mph - N/A   Clear
3:53 AM 44.1 °F - 27.0 °F 51% 30.02 in 10.0 mi Calm Calm - N/A   Clear
4:53 AM 42.1 °F - 28.0 °F 58% 30.05 in 10.0 mi Calm Calm - N/A   Clear
5:53 AM 42.1 °F 40.2 °F 28.0 °F 58% 30.07 in 10.0 mi SE 3.5 mph - N/A   Clear
6:53 AM 42.1 °F - 28.0 °F 58% 30.07 in 4.0 mi Calm Calm - N/A   Haze
7:53 AM 48.0 °F - 28.0 °F 46% 30.09 in 10.0 mi Calm Calm - N/A   Clear
8:53 AM 48.0 °F - 28.9 °F 48% 30.12 in 10.0 mi Calm Calm - N/A   Clear
9:53 AM 52.0 °F - 30.0 °F 43% 30.13 in 10.0 mi ENE 3.5 mph - N/A   Clear
10:53 AM 55.4 °F - 30.2 °F 38% 30.21 in 10.0 mi Calm Calm - N/A   Clear
11:53 AM 55.9 °F - 28.9 °F 36% 30.12 in 10.0 mi Variable 4.6 mph - N/A   Clear
12:53 PM 59.0 °F - 28.0 °F 31% 30.08 in 10.0 mi Calm Calm - N/A   Clear
1:53 PM 60.1 °F - 27.0 °F 28% 30.06 in 10.0 mi NE 3.5 mph - N/A   Clear
2:53 PM 61.0 °F - 28.0 °F 29% 30.04 in 10.0 mi NNE 4.6 mph - N/A   Clear
3:53 PM 61.0 °F - 28.9 °F 30% 30.05 in 10.0 mi North 3.5 mph - N/A   Clear
4:53 PM 60.1 °F - 28.9 °F 31% 30.06 in 10.0 mi Calm Calm - N/A   Clear
5:53 PM 54.0 °F - 32.0 °F 43% 30.10 in 10.0 mi Calm Calm - N/A   Clear
6:53 PM 53.1 °F - 30.0 °F 41% 30.13 in 10.0 mi ESE 4.6 mph - N/A   Clear
7:53 PM 51.1 °F - 30.0 °F 44% 30.13 in 10.0 mi SSE 4.6 mph - N/A   Clear
8:53 PM 51.1 °F - 30.9 °F 46% 30.15 in 10.0 mi WSW 3.5 mph - N/A   Clear
9:53 PM 48.0 °F - 32.0 °F 54% 30.18 in 10.0 mi Calm Calm - N/A   Clear
10:53 PM 46.9 °F - 32.0 °F 56% 30.19 in 10.0 mi Calm Calm - N/A   Clear
11:53 PM 46.9 °F - 32.0 °F 56% 30.19 in 10.0 mi Calm Calm - N/A   Clear